Details From SCEL - Arturo Merino Benitez Intl
To SCVM - Vina Del Mar
Flight Number -
Tags decoded
Created
Modified
Stats Distance 68 nm / 125 km
Max Altitude 0 ft / 0 m
Waypoints 6
Social Downloads 8
Likes 0
Share VATSIM

Download

Looking for another format? Having issues loading an existing format? Contact us
Advertisement - Login to hide

Notes

Requested: SCEL DESIT ELBOS SABLA SAL SCVM

Route

SCEL DESIT ELBOS SABLA SAL SCVM

ID Type Via Altitude Latitude Longitude Leg Dist Tot Dist Heading (true) Name
O SCEL APT - 0 ft / 0 m -33.38978˚ -70.79437˚ - 0 nm - Arturo Merino Benitez Intl
DESIT FIX - 0 ft / 0 m -33.53663˚ -70.77951˚ 8 nm 8 nm 175° / 175° -
ELBOS FIX - 0 ft / 0 m -33.47500˚ -71.12278˚ 17 nm 26 nm 282° / 282° -
SABLA FIX - 0 ft / 0 m -33.31389˚ -71.39972˚ 16 nm 43 nm 305° / 305° -
SAL NDB - 0 ft / 0 m -32.98565˚ -71.53391˚ 20 nm 64 nm 341° / 341° SALINAS NDB
O SCVM APT - 0 ft / 0 m -32.94961˚ -71.47858˚ 3 nm 67 nm 52° / 52° Vina Del Mar

Altitude Profile

Advertisement - Login to hide

SCEL

Details ICAO SCEL (SCL)
Name Arturo Merino Benitez Intl
Region Chile
Timezone America/Santiago (UTC-3.0)
Stats Elevation 1,550 ft / 472 m (AMSL)
Location -33.389775° -70.794366°
Runways 2
Magnetic Variation 1.802° E

METAR

SCEL 131500Z VRB03KT CAVOK 21/11 Q1019 NOSIG

Decode

TAF

TAF AMD SCEL 131355Z 1314/1412 18004KT CAVOK TX27/1319Z TN13/1410Z BECMG 1316/1318 19008KT BECMG 1318/1320 20012KT BECMG 1401/1403 18004KT TEMPO 1406/1412 VRB02KT 4000 BR FEW008 SCT016 BKN030

Decode

Departure Runways

ID Width Length Bearing (true) Bearing (mag) Surface Threshold Offset Overrun Length
17L 180 ft / 55 m 10,523 ft / 3,207 m 177.43° 175.63° Asphalt 0 ft / 0 m 0 ft / 0 m
17R 148 ft / 45 m 12,504 ft / 3,811 m 177.44° 175.64° Asphalt 0 ft / 0 m 0 ft / 0 m
35L 148 ft / 45 m 12,504 ft / 3,811 m 357.44° 355.64° Asphalt 0 ft / 0 m 0 ft / 0 m
35R 180 ft / 55 m 10,523 ft / 3,207 m 357.43° 355.63° Asphalt 1,800 ft / 549 m 0 ft / 0 m

SCVM

Details ICAO SCVM
Name Vina Del Mar
Region Chile
Timezone America/Santiago (UTC-3.0)
Stats Elevation 461 ft / 141 m (AMSL)
Location -32.949611° -71.478583°
Runways 1
Magnetic Variation 2.186° E

METAR

SCVM 131500Z 25010KT CAVOK 21/13 Q1019

Decode

TAF

Not found

Destination Runways

ID Width Length Bearing (true) Bearing (mag) Surface Threshold Offset Overrun Length
05 98 ft / 30 m 5,759 ft / 1,755 m 52.21° 50.02° Asphalt 0 ft / 0 m 85 ft / 26 m
23 98 ft / 30 m 5,759 ft / 1,755 m 232.20° 230.01° Asphalt 0 ft / 0 m 85 ft / 26 m

Approach Navaids

Runway Type Ident Frequency Range Bearing (true) Bearing (mag) Slope Elevation
05 Localiser IVDM 110.70 MHz 18 nm / 33 km 52.20° 50.02° - 456 ft / 139 m (AMSL)
05 Glidescope IVDM 110.70 MHz 10 nm / 19 km 52.20° 50.02° 3.20° 456 ft / 139 m (AMSL)
05 DME IVDM 110.70 MHz 18 nm / 33 km - - - 423 ft / 129 m (AMSL)

Popular Alternatives